GW1004 Weather Reports


time (UTC)temp
C
wind
direction
speed
KPH
gust
KPH
rain 1hr
cm
rain 24hr
cm
rain mn
cm
humidity
%
barometer
mb
20260507000358 18 248 1.6 3.2 0.00 0.53 0.53 86 1009.8
20260506235853 18 191 3.2 3.2 0.00 0.53 0.53 86 1009.8
20260506235351 18 241 3.2 3.2 0.00 0.53 0.53 86 1009.6
20260506234846 18 202 3.2 3.2 0.00 0.53 0.53 86 1009.6
20260506234344 18 278 1.6 3.2 0.00 0.53 0.53 86 1009.7
20260506233842 18 269 1.6 1.6 0.00 0.53 0.53 86 1009.7
20260506233337 18 208 3.2 3.2 0.00 0.53 0.53 86 1009.7
20260506232834 18 253 1.6 3.2 0.00 0.53 0.53 86 1009.5
20260506232330 18 275 1.6 1.6 0.00 0.53 0.53 85 1009.6
20260506231821 18 276 1.6 1.6 0.00 0.53 0.53 85 1009.4
20260506231319 18 192 3.2 3.2 0.00 0.53 0.53 85 1009.5
20260506230816 18 270 1.6 1.6 0.00 0.53 0.53 85 1009.7
20260506230313 18 254 4.8 4.8 0.00 0.53 0.53 85 1009.6
20260506225809 18 272 4.8 4.8 0.00 0.53 0.53 85 1009.5
20260506225306 18 248 1.6 3.2 0.00 0.53 0.53 85 1009.6
20260506224803 18 257 1.6 1.6 0.00 0.53 0.53 85 1009.6
20260506224300 18 286 1.6 3.2 0.00 0.53 0.53 85 1009.4
20260506223756 18 280 1.6 1.6 0.00 0.53 0.53 86 1009.4
20260506223252 18 270 3.2 3.2 0.00 0.53 0.53 85 1009.5
20260506222749 18 190 4.8 8.0 0.00 0.53 0.53 85 1009.7
20260506222244 18 276 1.6 1.6 0.00 0.53 0.53 85 1009.5
20260506221743 18 286 1.6 1.6 0.00 0.53 0.53 85 1009.5
20260506221240 18 225 3.2 3.2 0.00 0.53 0.53 85 1009.3
20260506220737 18 284 1.6 1.6 0.00 0.53 0.53 84 1009.5
20260506220232 18 269 1.6 1.6 0.00 0.53 0.53 84 1009.5
20260506215729 18 248 3.2 3.2 0.00 0.53 0.53 84 1009.4
20260506215225 18 201 4.8 4.8 0.00 0.53 0.53 84 1009.3
20260506214722 18 289 1.6 3.2 0.00 0.53 0.53 84 1009.4
20260506214219 18 165 1.6 3.2 0.00 0.53 0.53 84 1009.4
20260506213717 18 269 1.6 1.6 0.00 0.53 0.53 84 1009.0
20260506213214 19 241 3.2 3.2 0.00 0.53 0.53 84 1009.2
20260506212711 18 270 1.6 3.2 0.00 0.53 0.53 84 1009.2
20260506212206 19 247 4.8 4.8 0.00 0.53 0.53 84 1009.3
20260506211702 19 189 4.8 4.8 0.00 0.53 0.53 84 1009.2
20260506211158 18 293 0.0 0.0 0.00 0.53 0.53 85 1009.1
20260506210655 18 209 1.6 3.2 0.00 0.53 0.53 85 1008.9
20260506210152 18 277 3.2 4.8 0.00 0.53 0.53 85 1009.2
20260506205649 18 270 1.6 3.2 0.00 0.53 0.53 85 1009.2
20260506205144 18 191 3.2 4.8 0.00 0.53 0.53 85 1009.1
20260506204642 18 280 1.6 1.6 0.00 0.53 0.53 85 1009.1
20260506204139 18 272 1.6 3.2 0.00 0.53 0.53 85 1009.0
20260506203637 18 271 1.6 3.2 0.00 0.53 0.53 84 1009.1
20260506203134 18 224 3.2 3.2 0.00 0.53 0.53 85 1008.9
20260506202632 18 184 4.8 9.7 0.00 0.53 0.53 85 1008.9
20260506202127 18 204 4.8 4.8 0.00 0.53 0.53 86 1008.8
20260506201625 18 274 0.0 1.6 0.00 0.53 0.53 87 1009.1
20260506201121 18 269 3.2 4.8 0.00 0.53 0.53 86 1009.0
20260506200618 17 230 3.2 4.8 0.00 0.53 0.53 87 1009.2
20260506200115 17 199 4.8 8.0 0.00 0.53 0.53 87 1009.0
20260506195611 17 286 1.6 3.2 0.00 0.53 0.53 87 1009.0
20260506195108 17 240 3.2 4.8 0.00 0.53 0.53 87 1009.1
20260506194605 17 202 4.8 8.0 0.00 0.53 0.53 87 1009.4
20260506194101 17 173 6.4 9.7 0.00 0.53 0.53 88 1009.2
20260506193559 17 249 1.6 3.2 0.00 0.53 0.53 89 1009.3
20260506193056 17 242 3.2 4.8 0.00 0.53 0.53 89 1009.2
20260506192553 17 256 1.6 3.2 0.00 0.53 0.53 90 1009.4
20260506192049 17 249 4.8 4.8 0.00 0.53 0.53 90 1009.4
20260506191545 16 177 8.0 8.0 0.00 0.53 0.53 90 1009.5
20260506191042 16 194 3.2 3.2 0.00 0.53 0.53 91 1009.6
20260506190539 16 267 3.2 3.2 0.00 0.53 0.53 91 1009.6
20260506190036 16 229 4.8 4.8 0.00 0.53 0.53 91 1009.7
20260506185533 16 274 4.8 4.8 0.00 0.53 0.53 91 1009.7
20260506185030 16 270 4.8 4.8 0.00 0.53 0.53 91 1009.7
20260506184527 16 199 3.2 3.2 0.00 0.53 0.53 91 1009.7
20260506184024 16 173 4.8 8.0 0.00 0.53 0.53 92 1009.7
20260506183520 16 189 4.8 4.8 0.00 0.53 0.53 92 1009.8
20260506183017 16 194 4.8 8.0 0.00 0.53 0.53 92 1009.8
20260506182514 16 244 6.4 8.0 0.00 0.53 0.53 93 1010.1
20260506182011 16 237 1.6 3.2 0.00 0.53 0.53 94 1010.1
20260506181509 16 273 3.2 4.8 0.00 0.53 0.53 94 1009.8
20260506181006 16 258 1.6 3.2 0.00 0.53 0.53 94 1009.9
20260506180503 16 203 3.2 3.2 0.00 0.53 0.53 93 1009.9
20260506175959 16 277 3.2 3.2 0.00 0.53 0.53 93 1009.7
20260506175455 16 219 4.8 8.0 0.00 0.53 0.53 94 1009.9
20260506174952 16 191 4.8 8.0 0.00 0.53 0.53 94 1010.0
20260506174450 16 236 3.2 3.2 0.00 0.53 0.53 94 1010.0
20260506173946 16 223 4.8 8.0 0.00 0.53 0.53 94 1010.1
20260506173444 15 283 4.8 4.8 0.00 0.53 0.53 95 1010.0
20260506172941 15 235 6.4 8.0 0.00 0.53 0.53 96 1010.1
20260506172438 15 201 4.8 8.0 0.00 0.53 0.53 96 1010.2
20260506171934 15 289 3.2 3.2 0.00 0.53 0.53 96 1010.1
20260506171432 15 187 3.2 3.2 0.00 0.53 0.53 96 1010.5
20260506170930 15 286 6.4 8.0 0.00 0.53 0.53 96 1010.2
20260506170425 16 220 6.4 9.7 0.00 0.53 0.53 96 1010.3
20260506165919 16 266 3.2 4.8 0.00 0.53 0.53 96 1010.2
20260506165416 16 172 8.0 11.3 0.00 0.53 0.53 96 1010.3
20260506164907 16 185 4.8 9.7 0.00 0.53 0.53 96 1010.3
20260506164403 16 268 3.2 3.2 0.00 0.53 0.53 96 1009.9
20260506163901 16 222 6.4 9.7 0.13 0.53 0.53 97 1010.0
20260506163356 16 190 8.0 11.3 0.13 0.53 0.53 97 1010.3
20260506162851 15 221 4.8 4.8 0.18 0.51 0.51 96 1010.3
20260506162349 15 218 6.4 8.0 0.30 0.51 0.51 96 1010.2
20260506161846 15 227 4.8 8.0 0.13 0.48 0.48 96 1010.4
20260506161344 15 260 4.8 4.8 0.18 0.46 0.46 96 1010.6
20260506160842 15 246 3.2 3.2 0.36 0.46 0.46 96 1010.8
20260506160338 15 198 1.6 3.2 0.18 0.43 0.43 96 1011.0
20260506155836 15 232 4.8 4.8 0.30 0.41 0.41 95 1011.3
20260506155332 15 198 3.2 4.8 0.43 0.41 0.41 95 1011.5
20260506153445 15 224 3.2 3.2 0.48 0.28 0.28 94 1011.6
20260506152942 15 263 3.2 3.2 0.43 0.25 0.25 93 1011.4
20260506152439 16 246 1.6 3.2 0.30 0.20 0.20 92 1011.5
20260506151938 16 282 3.2 4.8 0.30 0.18 0.18 91 1011.5
20260506151434 16 225 4.8 4.8 0.30 0.15 0.15 91 1011.0
20260506150932 16 204 3.2 4.8 0.36 0.13 0.13 91 1011.4
20260506150428 16 253 1.6 3.2 0.30 0.10 0.10 90 1011.5
20260506145925 16 268 1.6 1.6 0.30 0.08 0.08 89 1011.6
20260506145421 16 250 1.6 3.2 0.18 0.05 0.05 88 1011.3
20260506144919 16 195 4.8 4.8 0.00 0.03 0.03 87 1011.2
20260506144415 16 268 1.6 1.6 0.13 0.03 0.03 87 1011.5
20260506143914 17 232 3.2 4.8 0.13 0.03 0.03 86 1011.4
20260506143410 17 287 0.0 0.0 0.00 0.00 0.00 84 1011.5
20260506142909 17 177 4.8 8.0 0.00 0.00 0.00 83 1011.5
20260506142406 17 192 3.2 4.8 0.00 0.00 0.00 81 1011.5
20260506141904 17 249 3.2 4.8 0.00 0.00 0.00 79 1011.6
20260506141402 18 235 1.6 3.2 0.00 0.00 0.00 77 1011.6
20260506140900 18 260 4.8 4.8 0.00 0.00 0.00 75 1011.5
20260506140356 18 203 3.2 3.2 0.00 0.00 0.00 75 1011.5
20260506135854 18 223 4.8 8.0 0.00 0.00 0.00 75 1011.2
20260506135350 18 229 3.2 3.2 0.00 0.00 0.00 74 1011.2
20260506134846 18 267 4.8 8.0 0.00 0.00 0.00 75 1011.1
20260506134343 18 167 3.2 4.8 0.00 0.00 0.00 75 1011.2
20260506133840 18 238 1.6 3.2 0.00 0.00 0.00 75 1011.2
20260506133337 18 181 4.8 4.8 0.00 0.00 0.00 76 1011.3
20260506132833 18 231 9.7 11.3 0.00 0.00 0.00 76 1011.4
20260506132331 18 172 9.7 11.3 0.00 0.00 0.00 76 1011.3
20260506131829 18 251 3.2 4.8 0.00 0.00 0.00 76 1011.3
20260506131325 18 266 1.6 3.2 0.00 0.00 0.00 76 1011.3
20260506130822 18 225 8.0 9.7 0.00 0.00 0.00 76 1011.3
20260506130318 18 276 4.8 4.8 0.00 0.00 0.00 76 1011.6
20260506125816 18 271 3.2 3.2 0.00 0.00 0.00 76 1011.4
20260506125314 18 192 6.4 8.0 0.00 0.00 0.00 76 1011.5
20260506124813 18 215 6.4 9.7 0.00 0.00 0.00 76 1011.4
20260506124309 18 267 4.8 9.7 0.00 0.00 0.00 76 1011.3
20260506123807 18 263 3.2 3.2 0.00 0.00 0.00 76 1011.3
20260506123306 18 188 8.0 9.7 0.00 0.00 0.00 77 1011.3
20260506122802 18 231 6.4 8.0 0.00 0.00 0.00 77 1011.5
20260506122259 17 264 9.7 12.9 0.00 0.00 0.00 78 1011.3
20260506121757 17 275 4.8 9.7 0.00 0.00 0.00 78 1011.1
20260506121254 17 241 4.8 4.8 0.00 0.00 0.00 78 1011.2
20260506120751 17 167 9.7 12.9 0.00 0.00 0.00 78 1011.0
20260506120249 17 214 8.0 9.7 0.00 0.00 0.00 79 1011.1
20260506115746 17 247 3.2 3.2 0.00 0.00 0.00 79 1011.0
20260506115244 17 212 6.4 8.0 0.00 0.00 0.00 79 1010.9
20260506114742 17 162 3.2 4.8 0.00 0.00 0.00 80 1011.1
20260506114239 17 247 8.0 12.9 0.00 0.00 0.00 80 1011.0
20260506113738 17 176 4.8 11.3 0.00 0.00 0.00 80 1011.0
20260506113235 17 220 4.8 8.0 0.00 0.00 0.00 80 1010.9
20260506112731 17 125 8.0 11.3 0.00 0.00 0.00 80 1010.9
20260506112229 17 221 6.4 9.7 0.00 0.00 0.00 81 1010.8
20260506111726 17 167 9.7 12.9 0.00 0.00 0.00 81 1011.0
20260506111224 17 177 8.0 11.3 0.00 0.00 0.00 81 1011.1
20260506110721 17 242 8.0 11.3 0.00 0.00 0.00 81 1011.0
20260506110218 17 193 6.4 9.7 0.00 0.00 0.00 81 1010.8
20260506105714 17 170 4.8 9.7 0.00 0.00 0.00 81 1011.0
20260506105211 17 224 6.4 8.0 0.00 0.00 0.00 81 1011.2
20260506104710 17 208 8.0 11.3 0.00 0.00 0.00 82 1010.8
20260506104207 17 253 6.4 8.0 0.00 0.00 0.00 82 1010.7
20260506103704 17 187 6.4 9.7 0.00 0.00 0.00 82 1010.7
20260506103201 17 231 4.8 9.7 0.00 0.00 0.00 82 1011.0
20260506102659 17 230 4.8 8.0 0.00 0.00 0.00 82 1010.9
20260506102156 17 202 3.2 4.8 0.00 0.00 0.00 82 1010.9
20260506101653 17 212 6.4 8.0 0.00 0.00 0.00 82 1010.8
20260506101150 17 171 8.0 11.3 0.00 0.00 0.00 82 1010.9
20260506100648 17 183 8.0 11.3 0.00 0.00 0.00 82 1010.8
20260506100146 17 183 8.0 9.7 0.00 0.00 0.00 82 1010.8
20260506095644 17 171 9.7 12.9 0.00 0.00 0.00 82 1011.1
20260506095140 17 225 8.0 9.7 0.00 0.00 0.00 82 1011.2
20260506094638 17 207 4.8 4.8 0.00 0.00 0.00 82 1011.0
20260506094136 17 232 8.0 11.3 0.00 0.00 0.00 82 1011.0
20260506093634 17 209 6.4 9.7 0.00 0.00 0.00 81 1011.0
20260506093131 17 232 8.0 9.7 0.00 0.00 0.00 81 1011.0
20260506092628 17 200 6.4 8.0 0.00 0.00 0.00 81 1010.8
20260506092125 17 249 6.4 9.7 0.00 0.00 0.00 81 1010.8
20260506091623 17 187 4.8 8.0 0.00 0.00 0.00 81 1010.8
20260506091121 17 184 6.4 9.7 0.00 0.00 0.00 80 1011.0
20260506090619 17 188 8.0 11.3 0.00 0.00 0.00 80 1010.8
20260506090114 17 181 6.4 8.0 0.00 0.00 0.00 80 1011.1
20260506085611 17 233 6.4 9.7 0.00 0.00 0.00 80 1010.9
20260506085108 17 197 4.8 4.8 0.00 0.00 0.00 80 1010.9
20260506084605 17 189 6.4 9.7 0.00 0.00 0.00 80 1011.2
20260506084101 17 249 6.4 8.0 0.00 0.00 0.00 80 1011.0
20260506083558 17 216 8.0 11.3 0.00 0.00 0.00 79 1011.0
20260506083055 17 196 8.0 11.3 0.00 0.00 0.00 79 1010.9
20260506082552 18 218 8.0 9.7 0.00 0.00 0.00 79 1011.1
20260506082048 18 233 6.4 9.7 0.00 0.00 0.00 78 1011.2
20260506081546 18 249 4.8 4.8 0.00 0.00 0.00 78 1011.1
20260506081043 18 194 6.4 8.0 0.00 0.00 0.00 78 1011.3
20260506080541 18 172 4.8 8.0 0.00 0.00 0.00 78 1011.1
20260506073524 18 183 6.4 9.7 0.00 0.00 0.00 78 1011.6
20260506073021 18 194 8.0 11.3 0.00 0.00 0.00 78 1011.3
20260506072519 18 197 4.8 8.0 0.00 0.00 0.00 77 1011.3
20260506072016 18 240 3.2 3.2 0.00 0.00 0.00 77 1011.5
20260506071514 18 224 4.8 4.8 0.00 0.00 0.00 77 1011.4
20260506071011 18 250 4.8 8.0 0.00 0.00 0.00 77 1011.6
20260506070508 18 247 8.0 9.7 0.00 0.00 0.00 76 1011.5
20260506062445 18 144 4.8 4.8 0.00 0.00 0.00 74 1011.7
20260506061941 18 187 8.0 12.9 0.00 0.00 0.00 74 1011.9
20260506061438 18 222 3.2 3.2 0.00 0.00 0.00 74 1011.8
20260506060936 18 158 3.2 4.8 0.00 0.00 0.00 74 1011.7
20260506060434 18 194 3.2 4.8 0.00 0.00 0.00 73 1011.7
20260506051406 18 179 4.8 8.0 0.00 0.00 0.00 71 1012.3
20260506050903 18 259 1.6 3.2 0.00 0.00 0.00 71 1012.1
20260506050401 18 176 6.4 9.7 0.00 0.00 0.00 71 1012.2
20260506044851 18 238 3.2 3.2 0.00 0.00 0.00 70 1012.4
20260506044349 18 186 4.8 8.0 0.00 0.00 0.00 70 1012.3
20260506043845 18 203 4.8 4.8 0.00 0.00 0.00 69 1012.4
20260506043343 18 169 1.6 3.2 0.00 0.00 0.00 69 1012.3
20260506042841 18 214 4.8 8.0 0.00 0.00 0.00 69 1012.5
20260506042340 19 202 4.8 4.8 0.00 0.00 0.00 69 1012.6
20260506041838 19 230 4.8 4.8 0.00 0.00 0.00 68 1012.4
20260506041335 19 173 6.4 8.0 0.00 0.00 0.00 68 1012.4
20260506040832 19 211 4.8 4.8 0.00 0.00 0.00 68 1012.5
20260506040329 19 229 6.4 8.0 0.00 0.00 0.00 68 1012.4
20260506035825 19 167 4.8 4.8 0.00 0.00 0.00 67 1012.3
20260506035323 19 265 4.8 8.0 0.00 0.00 0.00 67 1012.2
20260506034820 19 235 4.8 8.0 0.00 0.00 0.00 67 1012.3
20260506034317 19 199 8.0 9.7 0.00 0.00 0.00 67 1012.2
20260506033814 19 182 6.4 8.0 0.00 0.00 0.00 67 1012.1
20260506033311 19 229 9.7 12.9 0.00 0.00 0.00 66 1012.1
20260506032808 19 181 4.8 8.0 0.00 0.00 0.00 66 1012.1
20260506032306 19 211 4.8 4.8 0.00 0.00 0.00 66 1012.1
20260506031801 20 249 6.4 8.0 0.00 0.00 0.00 66 1012.2
20260506031259 20 238 3.2 3.2 0.00 0.00 0.00 65 1012.3
20260506030757 20 239 4.8 4.8 0.00 0.00 0.00 65 1012.1
20260506030254 20 188 4.8 8.0 0.00 0.00 0.00 65 1012.3
20260506025751 20 186 9.7 11.3 0.00 0.00 0.00 64 1012.3
20260506025247 20 218 4.8 8.0 0.00 0.00 0.00 64 1012.3
20260506024744 20 185 6.4 8.0 0.00 0.00 0.00 63 1012.5
20260506024241 20 254 4.8 8.0 0.00 0.00 0.00 63 1012.4
20260506023737 20 185 3.2 4.8 0.00 0.00 0.00 62 1012.5
20260506023234 20 233 6.4 9.7 0.00 0.00 0.00 62 1012.6
20260506022731 20 160 3.2 3.2 0.00 0.00 0.00 60 1012.5
20260506022229 21 207 8.0 9.7 0.00 0.00 0.00 59 1012.5
20260506021727 21 250 4.8 4.8 0.00 0.00 0.00 58 1012.4
20260506021223 21 247 4.8 8.0 0.00 0.00 0.00 57 1012.3
20260506020720 21 249 6.4 8.0 0.00 0.00 0.00 56 1012.3
20260506020218 21 194 6.4 9.7 0.00 0.00 0.00 54 1012.1
20260506015710 21 249 1.6 3.2 0.00 0.00 0.00 53 1012.2
20260506015207 22 197 3.2 4.8 0.00 0.00 0.00 53 1012.2
20260506014704 22 219 4.8 4.8 0.00 0.00 0.00 52 1012.1
20260506014200 22 189 4.8 4.8 0.00 0.00 0.00 52 1011.8
20260506013658 22 250 3.2 4.8 0.00 0.00 0.00 51 1011.9
20260506013155 22 214 3.2 4.8 0.00 0.00 0.00 51 1011.9
20260506012651 22 229 4.8 9.7 0.00 0.00 0.00 50 1011.8
20260506012148 22 242 3.2 3.2 0.00 0.00 0.00 50 1011.9
20260506011645 22 171 4.8 4.8 0.00 0.00 0.00 49 1011.8
20260506011141 22 246 4.8 4.8 0.00 0.00 0.00 49 1011.7
20260506010640 22 228 6.4 8.0 0.00 0.00 0.00 49 1011.9
20260506010137 22 204 9.7 11.3 0.00 0.00 0.00 48 1011.8
20260506005634 22 241 11.3 12.9 0.00 0.00 0.00 48 1011.7
20260506005131 22 191 11.3 14.5 0.00 0.00 0.00 47 1011.6
20260506004627 22 263 6.4 8.0 0.00 0.00 0.00 47 1011.6
20260506004124 23 223 4.8 8.0 0.00 0.00 0.00 46 1011.7
20260506003620 23 182 8.0 9.7 0.00 0.00 0.00 46 1011.7
20260506003116 23 178 6.4 8.0 0.00 0.00 0.00 46 1011.5
20260506002613 23 178 9.7 14.5 0.00 0.00 0.00 45 1011.5
20260506002109 23 235 4.8 8.0 0.00 0.00 0.00 45 1011.4
20260506001605 23 242 3.2 4.8 0.00 0.00 0.00 45 1011.5
20260506001102 23 226 9.7 12.9 0.00 0.00 0.00 45 1011.4